• In Hungary
  • List of Countries
  • For 7 days
  • Water Temperature
  • Satellite Maps
  • Weather Map
  • News
  • Weather Widgets
  • user-avatar
    Login

    Hourly Weather Jalalabad

    Today, 20 February, Tuesday

    Time Temperature Precipitation Wind Pressure Humidity
    00:00 +16°C° 0 mm 1 mps 709 mmHg 47%
    01:00 +16°C° 0 mm 1 mps 709 mmHg 47%
    02:00 +16°C° 0 mm 1 mps 709 mmHg 47%
    03:00 +16°C° 0 mm 1 mps 709 mmHg 48%
    04:00 +16°C° 0 mm 1 mps 709 mmHg 48%
    05:00 +16°C° 0 mm 1 mps 709 mmHg 51%
    06:00 +16°C° 0.1 mm 1 mps 709 mmHg 50%
    07:00 +16°C° 0.1 mm 1 mps 709 mmHg 50%
    08:00 +18°C° 0.1 mm 1 mps 709 mmHg 49%
    09:00 +19°C° 0.1 mm 1 mps 710 mmHg 46%
    10:00 +20°C° 0.1 mm 1 mps 710 mmHg 43%
    11:00 +21°C° 0.1 mm 1 mps 710 mmHg 40%
    12:00 +22°C° 0.3 mm 1 mps 710 mmHg 40%
    13:00 +22°C° 0.3 mm 1 mps 709 mmHg 40%
    14:00 +22°C° 0.3 mm 1 mps 709 mmHg 40%
    15:00 +22°C° 0.4 mm 1 mps 709 mmHg 43%
    16:00 +21°C° 0.4 mm 1 mps 709 mmHg 45%
    17:00 +21°C° 0.4 mm 1 mps 709 mmHg 47%
    18:00 +20°C° 0.3 mm 1 mps 709 mmHg 49%
    19:00 +19°C° 0.3 mm 1 mps 709 mmHg 52%
    20:00 +19°C° 0.3 mm 1 mps 709 mmHg 55%
    21:00 +18°C° 0.7 mm 1 mps 709 mmHg 56%
    22:00 +18°C° 0.7 mm 1 mps 710 mmHg 58%
    23:00 +18°C° 0.7 mm 1 mps 710 mmHg 59%

    Tomorrow, 21 February, Wednesday

    Time Temperature Precipitation Wind Pressure Humidity
    00:00 +16°C° 0.2 mm 1 mps 709 mmHg 61%
    01:00 +15°C° 0.2 mm 1 mps 709 mmHg 63%
    02:00 +15°C° 0.2 mm 1 mps 709 mmHg 65%
    03:00 +15°C° 0.3 mm 1 mps 709 mmHg 65%
    04:00 +14°C° 0.3 mm 1 mps 709 mmHg 65%
    05:00 +14°C° 0.3 mm 2 mps 709 mmHg 65%
    06:00 +14°C° 0.2 mm 2 mps 709 mmHg 65%
    07:00 +14°C° 0.2 mm 1 mps 709 mmHg 64%
    08:00 +14°C° 0.2 mm 1 mps 710 mmHg 64%
    09:00 +16°C° 0 mm 1 mps 710 mmHg 60%
    10:00 +18°C° 0 mm 1 mps 710 mmHg 57%
    11:00 +19°C° 0 mm 1 mps 710 mmHg 53%
    12:00 +20°C° 0 mm 1 mps 709 mmHg 51%
    13:00 +20°C° 0 mm 1 mps 709 mmHg 49%
    14:00 +21°C° 0 mm 1 mps 709 mmHg 47%
    15:00 +21°C° 0 mm 1 mps 708 mmHg 46%
    16:00 +21°C° 0 mm 1 mps 708 mmHg 44%
    17:00 +21°C° 0 mm 1 mps 708 mmHg 43%
    18:00 +20°C° 0 mm 1 mps 708 mmHg 45%
    19:00 +18°C° 0 mm 1 mps 709 mmHg 48%
    20:00 +16°C° 0 mm 1 mps 709 mmHg 51%
    21:00 +16°C° 0 mm 1 mps 709 mmHg 50%
    22:00 +15°C° 0 mm 1 mps 710 mmHg 50%
    23:00 +15°C° 0 mm 1 mps 710 mmHg 49%

    Day after tomorrow, 22 February, Thursday

    Time Temperature Precipitation Wind Pressure Humidity
    00:00 +15°C° 0 mm 1 mps 709 mmHg 49%
    01:00 +14°C° 0 mm 1 mps 709 mmHg 48%
    02:00 +14°C° 0 mm 1 mps 709 mmHg 47%
    03:00 +14°C° 0 mm 1 mps 709 mmHg 46%
    04:00 +14°C° 0 mm 1 mps 708 mmHg 45%
    05:00 +13°C° 0 mm 1 mps 708 mmHg 44%
    06:00 +14°C° 0 mm 1 mps 708 mmHg 43%
    07:00 +14°C° 0 mm 1 mps 708 mmHg 42%
    08:00 +14°C° 0 mm 1 mps 708 mmHg 41%
    09:00 +16°C° 0 mm 1 mps 708 mmHg 38%
    10:00 +18°C° 0 mm 1 mps 708 mmHg 35%
    11:00 +20°C° 0 mm 1 mps 708 mmHg 32%
    12:00 +21°C° 0 mm 1 mps 708 mmHg 31%
    13:00 +21°C° 0 mm 1 mps 708 mmHg 30%
    14:00 +21°C° 0 mm 2 mps 707 mmHg 29%
    15:00 +21°C° 0 mm 2 mps 707 mmHg 30%
    16:00 +21°C° 0 mm 1 mps 707 mmHg 30%
    17:00 +21°C° 0 mm 1 mps 707 mmHg 30%
    18:00 +20°C° 0 mm 1 mps 708 mmHg 32%
    19:00 +19°C° 0 mm 1 mps 708 mmHg 35%
    20:00 +18°C° 0 mm 1 mps 709 mmHg 37%
    21:00 +16°C° 0 mm 1 mps 709 mmHg 37%
    22:00 +16°C° 0 mm 1 mps 709 mmHg 37%
    23:00 +16°C° 0 mm 1 mps 709 mmHg 37%

    23 February, Friday

    Time Temperature Precipitation Wind Pressure Humidity
    00:00 +15°C° 0 mm 1 mps 709 mmHg 38%
    01:00 +15°C° 0 mm 1 mps 709 mmHg 38%
    02:00 +15°C° 0 mm 1 mps 709 mmHg 38%
    03:00 +14°C° 0 mm 1 mps 709 mmHg 38%
    04:00 +14°C° 0 mm 1 mps 708 mmHg 38%
    05:00 +14°C° 0 mm 1 mps 708 mmHg 38%
    06:00 +14°C° 0 mm 1 mps 709 mmHg 38%
    07:00 +15°C° 0 mm 1 mps 709 mmHg 37%
    08:00 +15°C° 0 mm 1 mps 709 mmHg 37%
    09:00 +16°C° 0.1 mm 1 mps 709 mmHg 35%
    10:00 +19°C° 0.1 mm 1 mps 709 mmHg 33%
    11:00 +20°C° 0.1 mm 1 mps 710 mmHg 32%
    12:00 +20°C° 0.2 mm 1 mps 709 mmHg 33%
    13:00 +20°C° 0.2 mm 1 mps 709 mmHg 35%
    14:00 +19°C° 0.2 mm 2 mps 708 mmHg 36%
    15:00 +19°C° 0.2 mm 2 mps 708 mmHg 38%
    16:00 +20°C° 0.2 mm 1 mps 708 mmHg 39%
    17:00 +20°C° 0.2 mm 1 mps 708 mmHg 41%
    18:00 +19°C° 0.1 mm 1 mps 708 mmHg 43%
    19:00 +19°C° 0.1 mm 1 mps 709 mmHg 45%
    20:00 +18°C° 0.1 mm 1 mps 709 mmHg 47%
    21:00 +18°C° 0.2 mm 1 mps 709 mmHg 48%
    22:00 +16°C° 0.2 mm 1 mps 709 mmHg 49%
    23:00 +16°C° 0.2 mm 1 mps 710 mmHg 50%

    24 February, Saturday

    Time Temperature Precipitation Wind Pressure Humidity
    00:00 +16°C° 0.8 mm 1 mps 709 mmHg 54%
    01:00 +15°C° 0.8 mm 1 mps 709 mmHg 57%
    02:00 +15°C° 0.8 mm 2 mps 709 mmHg 60%
    03:00 +14°C° 1.3 mm 2 mps 709 mmHg 65%
    04:00 +14°C° 1.3 mm 2 mps 709 mmHg 69%
    05:00 +13°C° 1.3 mm 2 mps 709 mmHg 73%
    06:00 +13°C° 0.6 mm 2 mps 709 mmHg 73%
    07:00 +13°C° 0.6 mm 2 mps 710 mmHg 74%
    08:00 +13°C° 0.6 mm 1 mps 710 mmHg 74%
    09:00 +13°C° 0.3 mm 1 mps 710 mmHg 72%
    10:00 +14°C° 0.3 mm 1 mps 711 mmHg 69%
    11:00 +14°C° 0.3 mm 1 mps 711 mmHg 67%
    12:00 +14°C° 1.3 mm 1 mps 710 mmHg 70%
    13:00 +14°C° 1.3 mm 1 mps 710 mmHg 73%
    14:00 +13°C° 1.3 mm 1 mps 710 mmHg 76%
    15:00 +13°C° 0.6 mm 1 mps 710 mmHg 76%
    16:00 +13°C° 0.6 mm 1 mps 710 mmHg 76%
    17:00 +13°C° 0.6 mm 1 mps 710 mmHg 77%
    18:00 +13°C° 0.1 mm 1 mps 711 mmHg 77%
    19:00 +13°C° 0.1 mm 1 mps 711 mmHg 77%
    20:00 +13°C° 0.1 mm 1 mps 712 mmHg 78%
    21:00 +13°C° 0 mm 1 mps 712 mmHg 77%
    22:00 +13°C° 0 mm 1 mps 712 mmHg 76%
    23:00 +12°C° 0 mm 1 mps 712 mmHg 75%

    25 February, Sunday

    Time Temperature Precipitation Wind Pressure Humidity
    00:00 +13°C° 0.2 mm 1 mps 712 mmHg 74%
    01:00 +13°C° 0.2 mm 1 mps 712 mmHg 72%
    02:00 +13°C° 0.2 mm 1 mps 712 mmHg 71%
    03:00 +13°C° 0.7 mm 1 mps 712 mmHg 72%
    04:00 +13°C° 0.7 mm 1 mps 712 mmHg 72%
    05:00 +13°C° 0.7 mm 2 mps 712 mmHg 73%
    06:00 +13°C° 1 mm 2 mps 712 mmHg 74%
    07:00 +13°C° 1 mm 1 mps 713 mmHg 75%
    08:00 +13°C° 1 mm 1 mps 713 mmHg 76%
    09:00 +14°C° 0.1 mm 1 mps 713 mmHg 72%
    10:00 +15°C° 0.1 mm 1 mps 713 mmHg 68%
    11:00 +16°C° 0.1 mm 1 mps 714 mmHg 64%
    12:00 +16°C° 0.1 mm 1 mps 713 mmHg 63%
    13:00 +18°C° 0.1 mm 1 mps 713 mmHg 61%
    14:00 +19°C° 0.1 mm 1 mps 712 mmHg 59%
    15:00 +19°C° 0.1 mm 1 mps 712 mmHg 59%
    16:00 +19°C° 0.1 mm 1 mps 712 mmHg 59%
    17:00 +19°C° 0.1 mm 1 mps 711 mmHg 59%
    18:00 +19°C° 0.1 mm 1 mps 712 mmHg 61%
    19:00 +18°C° 0.1 mm 1 mps 712 mmHg 63%
    20:00 +16°C° 0.1 mm 1 mps 713 mmHg 65%
    21:00 +16°C° 0.2 mm 1 mps 712 mmHg 65%
    22:00 +16°C° 0.2 mm 1 mps 712 mmHg 66%
    23:00 +16°C° 0.2 mm 1 mps 712 mmHg 66%
    Show more